Location: Mentone
(34.5413°N, 85.5351°W)
Time: 01:40:24
(UTC-05:00)

ADEOS Rocket - Visible Passes

Search period start: 05 May 2016 00:00
Search period end: 15 May 2016 00:00
Orbit: 860 x 1306 km, 98.7° (Epoch: 04 May)

Date Brightness Start Highest point End Pass type
(mag) Time Alt. Az. Time Alt. Az. Time Alt. Az.
05 May 5.2 04:45:41 10° NE 04:51:44 29° E 04:57:16 10° SSE visible
07 May 5.0 04:53:15 10° NNE 04:59:33 34° E 05:05:15 10° SSE visible
08 May 5.9 04:07:23 10° ENE 04:09:57 12° E 04:12:26 10° ESE visible
09 May 4.7 05:00:52 10° NNE 05:07:21 39° E 05:13:10 10° SSE visible
10 May 5.7 04:14:15 10° NE 04:17:49 15° E 04:21:11 10° ESE visible
11 May 4.4 05:08:32 10° NNE 05:15:07 46° E 05:21:02 10° S visible
12 May 5.6 04:21:25 10° NE 04:25:39 17° E 04:29:38 10° SE visible
14 May 5.5 04:28:44 10° NE 04:33:29 20° E 04:37:54 10° SE visible
